2021 GM2
ephemeris date magn radius delta ra dec elong phase
Today4 Sep 202629.41.680 AU2.656 AU10h03m+08°36'11.7°7.0°
2021 GM2 - 2026-09-04
astro.vanbuitenen.nl


 
-1 year
-1 month
-1 day
Now
+1 day
+1 month
+1 year

The interactive orbit chart above shows the body's path through the solar system and its position at the given date. Green and blue lines are shown perpendicular to the ecliptic plane: Green if the path is above the ecliptic plane, blue if it is below. (Left-click and drag to rotate the view; Right-click and drag to move the view; Use scroll wheel to zoom in our out.)

The orbital elements of 2021 GM2 are:

            e (Eccentricity)                : 0.5594024
            a (Semimajor axis)              : 1.9968367
            i (Inclination)                 : 6.48832
            Ω (Longitude of ascending node) : 192.27057
            ω (Argument of perihelion)      : 59.79350
            M (Mean anomaly)                : 286.80515
            Epoch                           : 2026 Jun 09

            L (Longitude of perihelion)     : 251.90374
            B (Latitude of perihelion)      : 5.60428
            P (Orbital period in years)     : 2.82            
        

The light curve chart below shows the estimated development of the minor planet's magnitude.


The all-sky chart below shows the path of the minor planet over the same period as the light curve. The current position is marked yellow.





The following chart shows the path of the minor planet in the next few days. The field of view is optimized for (~10x50) binoculars and finderscopes.




Ephemerides:
Date       Time       RA (2000)    DEC (2000)    delta   radius  elong  phase   PA    magn
2026-09-04 00:00 UT   10 03 22.0   +08 36 36     2.656    1.680   11.7    7.0   275   29.4 
2026-09-04 07:44 UT   10 04 09.2   +08 32 43     2.653    1.678   11.8    7.1   275   29.4 
2026-09-05 00:00 UT   10 05 48.8   +08 24 29     2.646    1.673   12.0    7.2   276   29.4 
2026-09-06 00:00 UT   10 08 16.3   +08 12 15     2.636    1.665   12.3    7.4   276   29.4 
2026-09-07 00:00 UT   10 10 44.5   +07 59 52     2.626    1.657   12.6    7.6   277   29.4 
2026-09-08 00:00 UT   10 13 13.5   +07 47 20     2.616    1.649   12.9    7.9   278   29.4 
2026-09-09 00:00 UT   10 15 43.2   +07 34 39     2.606    1.641   13.2    8.1   278   29.4 
2026-09-10 00:00 UT   10 18 13.7   +07 21 51     2.596    1.634   13.5    8.3   279   29.3 
2026-09-11 00:00 UT   10 20 44.9   +07 08 53     2.585    1.626   13.8    8.5   279   29.3 
2026-09-12 00:00 UT   10 23 16.8   +06 55 47     2.575    1.618   14.1    8.7   280   29.3 
2026-09-13 00:00 UT   10 25 49.6   +06 42 32     2.565    1.610   14.4    9.0   280   29.3 
2026-09-14 00:00 UT   10 28 23.2   +06 29 09     2.555    1.602   14.7    9.2   280   29.3 
2026-09-15 00:00 UT   10 30 57.5   +06 15 37     2.544    1.594   15.0    9.4   281   29.3 
2026-09-16 00:00 UT   10 33 32.7   +06 01 56     2.534    1.586   15.3    9.6   281   29.3 


    Terminology:
            
    delta:  distance between minor planet and earth in AU
    radius: distance between minor planet and sun in AU
    magn:   magnitude (brightness) estimate    
    ra:     right ascension in hours (24h = 360deg)
    dec:    declination in degrees
    elong:  elongation in degrees (angle sun-earth-minor planet)    
    phase:  phase angle in degrees (angle sun-minor planet-earth)        
    AU:     Astronomical Unit (mean distance between earth and sun: 149597870.7 km
    

Orbital elements provided by the MPC (Minor Planet Center).
Calculations by a modified version of AAPlus, a C# implementation of the AA+ project by PJ Naughter from the algorithms presented in the book "Astronomical Algorithms" by Jean Meeus.
NGC2000 dso catalog and star labels from VizieR as provided by the Strasbourg astronomical Data Center.
Tycho2 catalog from the ESO archive.